Year,Month,Day,Hour,Minute,Value (Times are PST for temperature in C)
2012,04,24,10,54,10.90
2012,04,24,10,55,10.90
2012,04,24,10,56,11.00
2012,04,24,10,57,11.10
2012,04,24,10,58,11.10
2012,04,24,10,59,11.10
2012,04,24,11,00,11.10
2012,04,24,11,01,11.20
2012,04,24,11,02,11.20
2012,04,24,11,03,11.20
2012,04,24,11,04,11.20
2012,04,24,11,05,11.20
2012,04,24,11,06,11.20
2012,04,24,11,07,11.20
2012,04,24,11,08,11.20
2012,04,24,11,09,11.20
2012,04,24,11,10,11.20
2012,04,24,11,11,11.20
2012,04,24,11,12,11.30
2012,04,24,11,13,11.30
2012,04,24,11,14,11.20
2012,04,24,11,15,11.20
2012,04,24,11,16,11.20
2012,04,24,11,17,11.30
2012,04,24,11,18,11.30
2012,04,24,11,19,11.30
2012,04,24,11,20,11.30
2012,04,24,11,21,11.20
2012,04,24,11,22,11.30
2012,04,24,11,23,11.20
2012,04,24,11,24,11.30
2012,04,24,11,25,11.30
2012,04,24,11,26,11.30
2012,04,24,11,27,11.30
2012,04,24,11,28,11.30
2012,04,24,11,29,11.30
2012,04,24,11,30,11.30
2012,04,24,11,31,11.30
2012,04,24,11,32,11.30
2012,04,24,11,33,11.30
2012,04,24,11,34,11.30
2012,04,24,11,35,11.20
2012,04,24,11,36,11.30
2012,04,24,11,37,11.30
2012,04,24,11,38,11.30
2012,04,24,11,39,11.30
2012,04,24,11,40,11.30
2012,04,24,11,41,11.40
2012,04,24,11,42,11.40
2012,04,24,11,43,11.40
2012,04,24,11,44,11.40
2012,04,24,11,45,11.40
2012,04,24,11,46,11.40
2012,04,24,11,47,11.40
2012,04,24,11,48,11.40
2012,04,24,11,49,11.40
2012,04,24,11,50,11.40
2012,04,24,11,51,11.40
2012,04,24,11,52,11.40
2012,04,24,11,53,11.40
2012,04,24,11,54,11.50
2012,04,24,11,55,11.50
2012,04,24,11,56,11.40
2012,04,24,11,57,11.60
2012,04,24,11,58,11.60
2012,04,24,11,59,11.60
2012,04,24,12,00,11.60
2012,04,24,12,01,11.60
2012,04,24,12,02,11.60
2012,04,24,12,03,11.60
2012,04,24,12,04,11.60
2012,04,24,12,05,11.60
2012,04,24,12,06,11.60
2012,04,24,12,07,11.70
2012,04,24,12,08,11.70
2012,04,24,12,09,11.70
2012,04,24,12,10,11.70
2012,04,24,12,11,11.70
2012,04,24,12,12,11.70
2012,04,24,12,13,11.70
2012,04,24,12,14,11.80
2012,04,24,12,15,11.80
2012,04,24,12,16,11.80
2012,04,24,12,17,11.80
2012,04,24,12,18,11.80
2012,04,24,12,19,11.80
2012,04,24,12,20,11.80
2012,04,24,12,21,11.80
2012,04,24,12,22,11.80
2012,04,24,12,23,11.80
2012,04,24,13,14,11.30
2012,04,24,13,15,11.30
2012,04,24,13,16,11.30
2012,04,24,13,17,11.30
2012,04,24,13,18,11.30
2012,04,24,13,19,11.30
2012,04,24,13,20,11.20
2012,04,24,13,21,11.30
2012,04,24,13,22,11.30
2012,04,24,13,23,11.30
2012,04,24,13,24,11.30
2012,04,24,13,25,11.30
2012,04,24,13,26,11.30
2012,04,24,13,27,11.30
2012,04,24,13,28,11.30
2012,04,24,13,29,11.30
2012,04,24,13,30,11.30
2012,04,24,13,31,11.30
2012,04,24,13,32,11.30
2012,04,24,13,33,11.30
2012,04,24,13,34,11.30
2012,04,24,13,35,11.30
2012,04,24,13,36,11.30
2012,04,24,13,37,11.30
2012,04,24,14,27,10.10
2012,04,24,14,28,10.10
2012,04,24,14,29,10.20
2012,04,24,14,30,10.20
2012,04,24,14,31,10.20
2012,04,24,14,32,10.20
2012,04,24,14,33,10.20
2012,04,24,14,34,10.20
2012,04,24,14,35,10.20
2012,04,24,14,36,10.20
2012,04,24,14,37,10.20
2012,04,24,14,38,10.20
2012,04,24,14,39,10.20
2012,04,24,14,40,10.10
2012,04,24,14,41,10.10
2012,04,24,14,42,10.10
2012,04,24,14,43,9.90
2012,04,24,14,44,10.00
2012,04,24,14,45,10.10
2012,04,24,14,46,10.00
2012,04,24,14,47,10.10
2012,04,24,14,48,10.10
2012,04,24,14,49,10.10
2012,04,24,14,50,10.10
2012,04,24,14,51,10.10
2012,04,24,14,52,10.10
2012,04,24,14,53,10.10
2012,04,24,14,54,10.10
2012,04,24,14,55,10.10
2012,04,24,14,56,10.10
2012,04,24,14,57,10.10
2012,04,24,14,58,10.10
2012,04,24,14,59,10.10
2012,04,24,15,00,10.10
2012,04,24,15,01,10.10
2012,04,24,15,02,10.10
2012,04,24,15,03,10.10
2012,04,24,15,36,10.40
2012,04,24,15,37,10.40
2012,04,24,15,38,10.40
2012,04,24,15,39,10.40
2012,04,24,15,40,10.40
2012,04,24,15,41,10.40
2012,04,24,15,42,10.50
2012,04,24,15,43,10.60
2012,04,24,15,44,10.60
2012,04,24,15,45,10.60
2012,04,24,15,46,10.60
2012,04,24,15,47,10.60
2012,04,24,15,48,10.60
2012,04,24,15,49,10.60
2012,04,24,15,50,10.60
2012,04,24,15,51,10.60
2012,04,24,15,52,10.60
2012,04,24,15,53,10.60
2012,04,24,15,54,10.60
2012,04,24,15,55,10.60
2012,04,24,15,56,10.60
2012,04,24,15,57,10.60
2012,04,24,15,58,10.60
2012,04,24,15,59,10.60
2012,04,24,16,00,10.60
2012,04,24,16,01,10.60
2012,04,24,16,02,10.60
2012,04,24,16,52,9.70
2012,04,24,16,53,9.70
2012,04,24,16,54,9.70
2012,04,24,16,55,9.70
2012,04,24,16,56,9.70
2012,04,24,16,57,9.80
2012,04,24,16,58,9.90
2012,04,24,16,59,9.90
2012,04,24,17,00,9.90
2012,04,24,17,01,10.00
2012,04,24,17,02,10.10
2012,04,24,17,03,10.10
2012,04,24,17,04,10.10
2012,04,24,17,05,10.10
2012,04,24,17,06,10.10
2012,04,24,17,07,10.10
2012,04,24,17,08,10.10
2012,04,24,17,09,10.10
2012,04,24,17,10,10.00
2012,04,24,17,11,9.90
2012,04,24,17,12,9.90
2012,04,24,17,13,9.90
2012,04,24,17,14,10.00
2012,04,24,17,15,10.10
2012,04,24,17,16,10.10
2012,04,24,17,17,10.10
2012,04,24,17,18,10.10
2012,04,24,17,19,10.10
2012,04,24,17,20,10.10
2012,04,24,17,21,10.10
2012,04,24,17,22,10.10
2012,04,24,17,23,10.10
2012,04,24,17,24,10.10
2012,04,24,17,25,10.10
2012,04,24,17,26,10.10
2012,04,24,17,27,10.10
2012,04,24,17,28,9.90
2012,04,24,17,29,9.90
2012,04,24,17,30,9.90
2012,04,24,17,31,9.90
2012,04,24,17,32,9.90
2012,04,24,17,33,9.90
2012,04,24,17,34,9.90
2012,04,24,17,35,9.90
2012,04,24,17,36,9.90
2012,04,24,17,37,9.90
2012,04,24,17,38,9.90
2012,04,24,17,39,9.90
2012,04,24,17,40,9.90
2012,04,24,17,41,9.90
2012,04,24,17,42,9.90
2012,04,24,17,43,9.90
2012,04,24,17,44,9.90
2012,04,24,17,45,9.90
2012,04,24,17,46,9.90
2012,04,24,17,47,9.90
2012,04,24,17,48,9.90
2012,04,24,17,49,9.90
2012,04,24,17,50,9.90
2012,04,24,17,51,9.90
2012,04,24,17,52,9.90
2012,04,24,17,53,9.90
2012,04,24,17,54,9.90
2012,04,24,17,55,9.90
2012,04,24,17,56,10.00
2012,04,24,17,57,10.10
2012,04,24,17,58,10.10
2012,04,24,17,59,10.10
2012,04,24,18,00,10.10
2012,04,24,18,01,10.10
2012,04,24,18,02,10.10
2012,04,24,18,03,10.20
2012,04,24,18,04,10.20
2012,04,24,18,05,10.20
2012,04,24,18,06,10.30
2012,04,24,18,07,10.30
2012,04,24,18,08,10.30
2012,04,24,18,09,10.20
2012,04,24,18,10,10.20
2012,04,24,18,11,10.20
2012,04,24,18,12,10.20
2012,04,24,18,13,10.20
2012,04,24,18,14,10.20
2012,04,24,18,15,10.20
2012,04,24,18,16,10.20
2012,04,24,18,17,10.20
2012,04,24,18,18,10.20
2012,04,24,18,19,10.20
2012,04,24,18,20,10.20
2012,04,24,18,21,10.20
2012,04,24,18,22,10.20
2012,04,24,18,23,10.20
2012,04,24,18,24,10.20
2012,04,24,18,25,10.20
2012,04,24,18,26,10.20
2012,04,24,18,27,10.20
2012,04,24,18,28,10.20
2012,04,24,18,29,10.20
2012,04,24,18,30,10.20
2012,04,24,18,31,10.20
